Location: Poprad
(49.0500°N, 20.3000°E)
Time: 23:42:40
(UTC+02:00)

ITUPSAT 1 - Visible Passes

Search period start: 24 April 2024 00:00
Search period end: 04 May 2024 00:00
Orbit: 695 x 707 km, 98.5° (Epoch: 24 April)

Date Brightness Start Highest point End Pass type
(mag) Time Alt. Az. Time Alt. Az. Time Alt. Az.
24 Apr ? 21:17:03 10° ENE 21:18:33 11° E 21:18:33 11° E visible
24 Apr ? 22:52:15 10° NNE 22:57:01 85° ESE 22:57:25 75° S visible
25 Apr ? 00:31:18 10° NNW 00:34:04 16° NW 00:36:16 12° W visible
25 Apr ? 21:57:19 10° NE 22:01:21 27° E 22:01:26 27° E visible
25 Apr ? 23:34:44 10° N 23:39:10 41° WNW 23:40:17 35° W visible
26 Apr ? 22:39:08 10° NNE 22:43:51 64° ESE 22:44:18 61° SE visible
27 Apr ? 00:17:44 10° NNW 00:21:05 20° WNW 00:23:10 15° W visible
27 Apr ? 21:44:31 10° NE 21:48:04 21° E 21:48:19 21° E visible
27 Apr ? 23:21:28 10° N 23:26:05 54° WNW 23:27:10 44° WSW visible
28 Apr ? 22:26:03 10° NNE 22:30:39 48° E 22:31:11 46° ESE visible
29 Apr ? 00:04:15 10° N 00:08:04 25° WNW 00:10:02 19° W visible
29 Apr ? 21:31:51 10° NE 21:34:45 16° E 21:35:11 16° E visible
29 Apr ? 23:08:13 10° N 23:12:57 71° WNW 23:14:02 51° SW visible
30 Apr ? 00:48:03 10° NNW 00:49:48 12° NW 00:51:32 10° WNW visible
30 Apr ? 22:13:00 10° NNE 22:17:23 37° E 22:18:02 35° ESE visible
30 Apr ? 23:50:51 10° N 23:55:00 31° WNW 23:56:53 23° WSW visible
01 May ? 21:19:36 10° ENE 21:21:23 12° E 21:22:01 12° E visible
01 May ? 22:55:01 10° NNE 22:59:46 88° ESE 23:00:52 54° SSW visible
02 May ? 00:34:07 10° NNW 00:36:48 15° NW 00:39:27 10° W visible
02 May ? 22:00:01 10° NE 22:04:05 28° E 22:04:51 27° ESE visible
02 May ? 23:37:28 10° N 23:41:53 40° WNW 23:43:42 28° WSW visible
03 May ? 22:41:48 10° NNE 22:46:32 67° ESE 22:47:41 49° SSE visible
